Content
SEND FEEDBACK

Daily
Averages
Monthly
Summary
Thailand

BANGKOK, THAILAND


Home > Asia > Thailand
Elevation: 66 feet     Latitude: 13 44N     Longitude: 100 34E

WEATHER
 
SELECT A DAY
Number of Records: 246,553;   Date Range: 7/1/96 - 12/26/14
 
SHARE

PRINT THIS DATA

[ ← Previous Day ]
WEATHER ALMANAC - JULY 8, 2013
[ Next Day → ]
[ °C ]   °F
We're sorry. There is no daily almanac available for Bangkok, Thailand on July 8, 2013.
WEATHER BY HOUR - JULY 8, 2013
[ °C ]   °F
Local TimeTemperatureDewpointHumidityBarometerVisibilityWind DirectionWind SpeedGust SpeedPrecipitationEventsConditions
12:30 AM80.6 °F77.0 °F89 %29.77 in5.6 miSouth (190°)4.6 mphRainLight Rain
1:00 AM80.0 °F76.0 °F84 %29.79 in6.0 miSouth (170°)3.5 mphRainLight Rain
1:00 AM80.6 °F77.0 °F89 %29.77 in5.6 miSouth (170°)3.5 mphRainLight Rain
1:30 AM80.6 °F77.0 °F89 %29.77 in5.6 miSSE (150°)2.3 mphRainLight Rain
2:00 AM80.6 °F77.0 °F89 %29.77 in5.6 miSSE (150°)3.5 mphRainLight Rain
2:30 AM80.6 °F77.0 °F89 %29.74 in6.2 miSSE (150°)3.5 mphMostly Cloudy
3:00 AM78.8 °F77.0 °F94 %29.74 in6.2 miSSE (160°)2.3 mphMostly Cloudy
3:30 AM78.8 °F77.0 °F94 %29.74 in6.2 miSE (130°)2.3 mphMostly Cloudy
4:00 AM78.8 °F77.0 °F94 %29.74 in6.2 miSE (140°)3.5 mphMostly Cloudy
4:30 AM78.8 °F77.0 °F94 %29.74 in6.2 miSE (140°)3.5 mphMostly Cloudy
5:00 AM78.8 °F77.0 °F94 %29.74 in6.2 miSSE (160°)3.5 mphMostly Cloudy
5:30 AM78.8 °F77.0 °F94 %29.74 in6.2 miSSE (160°)3.5 mphMostly Cloudy
6:00 AM78.8 °F77.0 °F94 %29.74 in6.2 miSSE (160°)3.5 mphMostly Cloudy
6:30 AM78.8 °F77.0 °F94 %29.77 in6.2 miSE (140°)2.3 mphMostly Cloudy
7:00 AM79.0 °F77.0 °F91 %29.79 in6.0 miEast (100°)3.5 mphPartly Cloudy
7:00 AM78.8 °F77.0 °F94 %29.77 in6.2 miEast (100°)3.5 mphMostly Cloudy
7:30 AM78.8 °F77.0 °F94 %29.77 in6.2 miESE (110°)4.6 mphMostly Cloudy
8:00 AM80.6 °F77.0 °F89 %29.80 in6.2 miESE (120°)3.5 mphMostly Cloudy
8:30 AM80.6 °F77.0 °F89 %29.77 in6.2 miEast (90°)3.5 mphMostly Cloudy
9:00 AM82.4 °F77.0 °F84 %29.80 in6.2 miESE (120°)6.9 mphMostly Cloudy
9:30 AM84.2 °F77.0 °F79 %29.80 in6.2 miSSE (150°)3.5 mphMostly Cloudy
10:00 AM86.0 °F78.8 °F79 %29.80 in6.2 miSouth (180°)8.1 mphMostly Cloudy
10:30 AM86.0 °F77.0 °F74 %29.80 in6.2 miSouth (180°)4.6 mphMostly Cloudy
11:00 AM87.8 °F73.4 °F62 %29.80 in6.2 miSSW (210°)5.8 mphMostly Cloudy
11:30 AM84.2 °F75.2 °F74 %29.80 in5.0 miSSW (210°)15.0 mphMostly Cloudy
12:00 PM82.4 °F75.2 °F79 %29.77 in5.0 miSouth (180°)10.4 mphRainLight Rain
12:30 PM82.4 °F75.2 °F79 %29.77 in6.2 miSouth (180°)6.9 mphMostly Cloudy
1:00 PM84.0 °F75.0 °F68 %29.78 in6.0 miSouth (180°)11.5 mphRainLight Rain
1:00 PM84.2 °F75.2 °F74 %29.77 in6.2 miSouth (180°)11.5 mphMostly Cloudy
1:30 PM84.2 °F75.2 °F74 %29.74 in6.2 miSouth (180°)11.5 mphMostly Cloudy
2:00 PM86.0 °F75.2 °F70 %29.74 in6.2 miSouth (180°)11.5 mphMostly Cloudy
2:30 PM86.0 °F75.2 °F70 %29.71 in6.2 miSSW (210°)11.5 mphMostly Cloudy
3:00 PM87.8 °F73.4 °F62 %29.71 in6.2 miSSW (210°)16.1 mphMostly Cloudy
3:30 PM87.8 °F73.4 °F62 %29.71 in6.2 miSSW (210°)13.8 mphMostly Cloudy
4:00 PM87.8 °F73.4 °F62 %29.71 in6.2 miWSW (240°)11.5 mphMostly Cloudy
4:30 PM87.8 °F73.4 °F62 %29.68 in6.2 miSSW (210°)11.5 mphMostly Cloudy
5:00 PM86.0 °F73.4 °F66 %29.68 in6.2 miSSW (210°)10.4 mphMostly Cloudy
5:30 PM86.0 °F73.4 °F66 %29.71 in6.2 miSouth (180°)9.2 mphMostly Cloudy
6:00 PM86.0 °F73.4 °F66 %29.71 in6.2 miSSW (210°)13.8 mphMostly Cloudy
6:30 PM84.2 °F73.4 °F70 %29.71 in6.2 miSSW (210°)11.5 mphMostly Cloudy
7:00 PM84.0 °F74.0 °F64 %29.73 in6.0 miSouth (180°)13.8 mphScattered Clouds
7:00 PM84.2 °F73.4 °F70 %29.71 in6.2 miSouth (180°)13.8 mphMostly Cloudy
7:30 PM84.2 °F75.2 °F74 %29.74 in6.2 miSouth (180°)11.5 mphMostly Cloudy
8:00 PM84.2 °F73.4 °F70 %29.74 in6.2 miWSW (240°)9.2 mphMostly Cloudy
8:30 PM84.2 °F73.4 °F70 %29.74 inSW (230°)11.5 mphMostly Cloudy
9:00 PM82.4 °F73.4 °F74 %29.77 inWSW (250°)11.5 mphMostly Cloudy
9:30 PM82.4 °F73.4 °F74 %29.77 inWest (260°)6.9 mphMostly Cloudy
10:00 PM82.4 °F73.4 °F74 %29.77 inWest (260°)9.2 mphMostly Cloudy
10:30 PM80.6 °F73.4 °F79 %29.80 in6.2 miNNW (330°)4.6 mphRainLight Rain
11:00 PM80.6 °F73.4 °F79 %29.80 in6.2 miEast (80°)3.5 mphRainLight Rain
11:30 PM80.6 °F73.4 °F79 %29.80 in6.2 miSSE (160°)2.3 mphMostly Cloudy
Hourly data recorded from VTBD, located miles away from Bangkok, Thailand







STORIES FROM OUR PARTNERS